| time (UTC) | temp F | wind direction | speed MPH | gust MPH | rain 1hr in | rain 24hr in | rain mn in | humidity % | barometer mb |
| 20260903163103 | 56 | 0 | 0.0 | 0.0 | 0.00 | 0.70 | 0.09 | 93 | 1010.8 |
| 20260903162538 | 56 | 0 | 0.0 | 0.0 | 0.00 | 0.70 | 0.09 | 93 | 1010.8 |
| 20260903162038 | 55 | 0 | 0.0 | 1.0 | 0.01 | 0.70 | 0.09 | 93 | 1010.7 |
| 20260903161601 | 55 | 0 | 0.0 | 1.0 | 0.02 | 0.70 | 0.09 | 93 | 1010.7 |
| 20260903161039 | 54 | 0 | 0.0 | 1.0 | 0.02 | 0.70 | 0.09 | 92 | 1010.8 |
| 20260903160538 | 54 | 0 | 0.0 | 1.0 | 0.03 | 0.70 | 0.09 | 92 | 1010.8 |
| 20260903160056 | 54 | 0 | 0.0 | 1.0 | 0.04 | 0.70 | 0.09 | 92 | 1010.8 |
| 20260903155538 | 54 | 0 | 0.0 | 1.0 | 0.04 | 0.70 | 0.09 | 92 | 1010.8 |
| 20260903155038 | 54 | 0 | 0.0 | 0.0 | 0.04 | 0.70 | 0.09 | 92 | 1010.8 |
| 20260903154606 | 54 | 0 | 0.0 | 0.0 | 0.05 | 0.70 | 0.09 | 92 | 1010.8 |
| 20260903154041 | 53 | 0 | 0.0 | 0.0 | 0.05 | 0.70 | 0.09 | 92 | 1010.8 |
| 20260903153538 | 53 | 0 | 0.0 | 0.0 | 0.05 | 0.70 | 0.09 | 92 | 1010.8 |
| 20260903153103 | 53 | 0 | 0.0 | 2.0 | 0.05 | 0.70 | 0.09 | 92 | 1010.9 |
| 20260903152542 | 53 | 0 | 0.0 | 2.0 | 0.05 | 0.70 | 0.09 | 92 | 1010.9 |
| 20260903152043 | 53 | 0 | 0.0 | 2.0 | 0.05 | 0.69 | 0.08 | 92 | 1010.9 |
| 20260903151604 | 53 | 0 | 0.0 | 2.0 | 0.04 | 0.68 | 0.07 | 92 | 1010.9 |
| 20260903151041 | 53 | 0 | 0.0 | 0.0 | 0.04 | 0.68 | 0.07 | 92 | 1011.0 |
| 20260903150541 | 53 | 0 | 0.0 | 0.0 | 0.04 | 0.67 | 0.06 | 92 | 1010.9 |
| 20260903150101 | 53 | 0 | 0.0 | 0.0 | 0.03 | 0.66 | 0.05 | 92 | 1010.9 |
| 20260903145538 | 53 | 0 | 0.0 | 0.0 | 0.03 | 0.66 | 0.05 | 92 | 1010.9 |
| 20260903145041 | 53 | 0 | 0.0 | 0.0 | 0.03 | 0.66 | 0.05 | 92 | 1010.8 |
| 20260903144607 | 53 | 0 | 0.0 | 1.0 | 0.02 | 0.65 | 0.04 | 92 | 1010.9 |
| 20260903144045 | 53 | 0 | 0.0 | 2.0 | 0.02 | 0.65 | 0.04 | 92 | 1010.9 |
| 20260903143541 | 53 | 0 | 0.0 | 3.0 | 0.02 | 0.65 | 0.04 | 92 | 1010.8 |
| 20260903143058 | 53 | 183 | 1.0 | 3.0 | 0.02 | 0.65 | 0.04 | 92 | 1010.7 |
| 20260903142541 | 53 | 0 | 0.0 | 2.0 | 0.02 | 0.65 | 0.04 | 92 | 1010.6 |
| 20260903142042 | 53 | 0 | 0.0 | 3.0 | 0.01 | 0.64 | 0.03 | 92 | 1010.6 |
| 20260903141554 | 53 | 203 | 0.0 | 3.0 | 0.01 | 0.64 | 0.03 | 92 | 1010.6 |
| 20260903141041 | 52 | 201 | 0.0 | 4.0 | 0.01 | 0.64 | 0.03 | 92 | 1010.4 |
| 20260903140542 | 52 | 191 | 1.0 | 4.0 | 0.00 | 0.63 | 0.02 | 92 | 1010.4 |
| 20260903140056 | 52 | 229 | 0.0 | 3.0 | 0.00 | 0.63 | 0.02 | 92 | 1010.5 |
| 20260903135542 | 52 | 0 | 0.0 | 3.0 | 0.00 | 0.63 | 0.02 | 92 | 1010.6 |
| 20260903135039 | 52 | 0 | 0.0 | 3.0 | 0.00 | 0.63 | 0.02 | 92 | 1010.4 |
| 20260903134553 | 52 | 0 | 0.0 | 3.0 | 0.00 | 0.63 | 0.02 | 92 | 1010.2 |
| 20260903134039 | 52 | 244 | 0.0 | 2.0 | 0.00 | 0.63 | 0.02 | 92 | 1010.3 |
| 20260903133545 | 52 | 0 | 0.0 | 6.0 | 0.00 | 0.63 | 0.02 | 92 | 1010.1 |
| 20260903133105 | 52 | 0 | 0.0 | 6.0 | 0.00 | 0.63 | 0.02 | 92 | 1010.0 |
| 20260903132538 | 52 | 0 | 2.0 | 6.0 | 0.00 | 0.63 | 0.02 | 92 | 1009.9 |
| 20260903132046 | 52 | 0 | 0.0 | 4.0 | 0.00 | 0.63 | 0.02 | 92 | 1009.9 |
| 20260903131557 | 52 | 0 | 0.0 | 2.0 | 0.00 | 0.63 | 0.02 | 92 | 1009.9 |
| 20260903131041 | 52 | 0 | 0.0 | 0.0 | 0.00 | 0.63 | 0.02 | 92 | 1009.9 |
| 20260903130543 | 51 | 0 | 0.0 | 0.0 | 0.00 | 0.63 | 0.02 | 92 | 1010.0 |
| 20260903125538 | 51 | 0 | 0.0 | 0.0 | 0.00 | 0.63 | 0.02 | 92 | 1010.0 |
| 20260903125040 | 51 | 0 | 0.0 | 0.0 | 0.00 | 0.63 | 0.02 | 92 | 1010.0 |
| 20260903124619 | 51 | 0 | 0.0 | 0.0 | 0.00 | 0.63 | 0.02 | 92 | 1010.1 |
| 20260903124046 | 51 | 0 | 0.0 | 0.0 | 0.00 | 0.63 | 0.02 | 92 | 1010.1 |
| 20260903123546 | 51 | 0 | 0.0 | 0.0 | 0.00 | 0.63 | 0.02 | 92 | 1010.1 |
| 20260903123057 | 51 | 0 | 0.0 | 0.0 | 0.00 | 0.63 | 0.02 | 92 | 1010.1 |
| 20260903122538 | 51 | 0 | 0.0 | 0.0 | 0.00 | 0.63 | 0.02 | 92 | 1010.1 |
| 20260903122038 | 51 | 0 | 0.0 | 0.0 | 0.00 | 0.63 | 0.02 | 92 | 1010.1 |
| 20260903121600 | 51 | 0 | 0.0 | 0.0 | 0.00 | 0.63 | 0.02 | 91 | 1010.1 |
| 20260903121038 | 51 | 0 | 0.0 | 0.0 | 0.00 | 0.63 | 0.02 | 91 | 1010.1 |
| 20260903120542 | 51 | 0 | 0.0 | 0.0 | 0.00 | 0.63 | 0.02 | 91 | 1010.2 |
| 20260903120110 | 51 | 0 | 0.0 | 0.0 | 0.00 | 0.63 | 0.02 | 91 | 1010.2 |
| 20260903115538 | 51 | 0 | 0.0 | 0.0 | 0.00 | 0.63 | 0.02 | 91 | 1010.2 |
| 20260903115038 | 51 | 0 | 0.0 | 0.0 | 0.00 | 0.63 | 0.02 | 91 | 1010.2 |
| 20260903114601 | 51 | 0 | 0.0 | 0.0 | 0.00 | 0.63 | 0.02 | 91 | 1010.1 |
| 20260903114038 | 51 | 0 | 0.0 | 0.0 | 0.00 | 0.63 | 0.02 | 91 | 1010.1 |
| 20260903113539 | 51 | 0 | 0.0 | 0.0 | 0.00 | 0.63 | 0.02 | 91 | 1010.1 |
| 20260903113133 | 51 | 0 | 0.0 | 0.0 | 0.00 | 0.63 | 0.02 | 91 | 1010.1 |
| 20260903112540 | 51 | 0 | 0.0 | 0.0 | 0.00 | 0.63 | 0.02 | 91 | 1010.2 |
| 20260903112039 | 51 | 0 | 0.0 | 0.0 | 0.00 | 0.63 | 0.02 | 91 | 1010.2 |
| 20260903111553 | 51 | 0 | 0.0 | 0.0 | 0.00 | 0.63 | 0.02 | 91 | 1010.2 |
| 20260903111039 | 51 | 0 | 0.0 | 0.0 | 0.00 | 0.63 | 0.02 | 91 | 1010.2 |
| 20260903110539 | 52 | 0 | 0.0 | 0.0 | 0.00 | 0.63 | 0.02 | 91 | 1010.2 |
| 20260903110109 | 52 | 0 | 0.0 | 0.0 | 0.00 | 0.63 | 0.02 | 91 | 1010.3 |
| 20260903105539 | 52 | 0 | 0.0 | 0.0 | 0.00 | 0.63 | 0.02 | 91 | 1010.2 |
| 20260903105038 | 52 | 0 | 0.0 | 0.0 | 0.00 | 0.63 | 0.02 | 91 | 1010.3 |
| 20260903104607 | 52 | 0 | 0.0 | 0.0 | 0.00 | 0.63 | 0.02 | 91 | 1010.4 |
| 20260903104038 | 52 | 0 | 0.0 | 0.0 | 0.00 | 0.63 | 0.02 | 91 | 1010.4 |
| 20260903103539 | 52 | 0 | 0.0 | 0.0 | 0.00 | 0.63 | 0.02 | 91 | 1010.4 |
| 20260903103106 | 52 | 0 | 0.0 | 0.0 | 0.00 | 0.63 | 0.02 | 91 | 1010.5 |
| 20260903102539 | 52 | 0 | 0.0 | 3.0 | 0.00 | 0.63 | 0.02 | 91 | 1010.5 |
| 20260903102038 | 52 | 0 | 0.0 | 3.0 | 0.00 | 0.63 | 0.02 | 91 | 1010.3 |
| 20260903101603 | 53 | 227 | 0.0 | 3.0 | 0.00 | 0.63 | 0.02 | 91 | 1010.3 |
| 20260903101038 | 53 | 227 | 0.0 | 4.0 | 0.00 | 0.63 | 0.02 | 91 | 1010.2 |
| 20260903100538 | 53 | 225 | 0.0 | 4.0 | 0.00 | 0.63 | 0.02 | 91 | 1010.2 |
| 20260903100104 | 53 | 198 | 1.0 | 4.0 | 0.00 | 0.63 | 0.02 | 91 | 1010.1 |
| 20260903095538 | 53 | 193 | 2.0 | 4.0 | 0.00 | 0.63 | 0.02 | 91 | 1010.1 |
| 20260903095040 | 53 | 0 | 0.0 | 2.0 | 0.00 | 0.63 | 0.02 | 91 | 1010.1 |
| 20260903094557 | 53 | 0 | 0.0 | 2.0 | 0.00 | 0.63 | 0.02 | 91 | 1010.1 |
| 20260903094039 | 53 | 0 | 0.0 | 3.0 | 0.00 | 0.63 | 0.02 | 91 | 1010.0 |
| 20260903093539 | 53 | 223 | 1.0 | 4.0 | 0.00 | 0.63 | 0.02 | 91 | 1010.2 |
| 20260903093106 | 53 | 229 | 1.0 | 4.0 | 0.00 | 0.63 | 0.02 | 91 | 1010.2 |
| 20260903092539 | 53 | 227 | 1.0 | 3.0 | 0.00 | 0.63 | 0.02 | 91 | 1010.2 |
| 20260903092040 | 53 | 240 | 1.0 | 3.0 | 0.00 | 0.63 | 0.02 | 91 | 1010.2 |
| 20260903091557 | 53 | 242 | 0.0 | 2.0 | 0.00 | 0.63 | 0.02 | 91 | 1010.3 |
| 20260903091041 | 53 | 0 | 0.0 | 2.0 | 0.00 | 0.63 | 0.02 | 91 | 1010.3 |
| 20260903090538 | 53 | 0 | 0.0 | 1.0 | 0.01 | 0.63 | 0.02 | 91 | 1010.3 |
| 20260903090101 | 53 | 0 | 0.0 | 2.0 | 0.01 | 0.63 | 0.02 | 91 | 1010.3 |
| 20260903085537 | 53 | 0 | 0.0 | 2.0 | 0.01 | 0.63 | 0.02 | 91 | 1010.4 |
| 20260903085038 | 53 | 0 | 0.0 | 3.0 | 0.01 | 0.63 | 0.02 | 91 | 1010.3 |
| 20260903084556 | 53 | 0 | 0.0 | 3.0 | 0.01 | 0.63 | 0.02 | 91 | 1010.3 |
| 20260903084039 | 53 | 0 | 0.0 | 3.0 | 0.01 | 0.63 | 0.02 | 91 | 1010.2 |
| 20260903083541 | 53 | 0 | 0.0 | 3.0 | 0.01 | 0.63 | 0.02 | 91 | 1010.4 |
| 20260903083055 | 54 | 221 | 0.0 | 2.0 | 0.01 | 0.63 | 0.02 | 91 | 1010.3 |
| 20260903082538 | 54 | 0 | 0.0 | 2.0 | 0.01 | 0.63 | 0.02 | 91 | 1010.4 |
| 20260903082038 | 54 | 0 | 0.0 | 2.0 | 0.01 | 0.63 | 0.02 | 91 | 1010.4 |
| 20260903081604 | 54 | 0 | 0.0 | 1.0 | 0.01 | 0.63 | 0.02 | 91 | 1010.6 |
| 20260903081039 | 54 | 0 | 0.0 | 1.0 | 0.01 | 0.63 | 0.02 | 91 | 1010.6 |
| 20260903080538 | 54 | 0 | 0.0 | 2.0 | 0.00 | 0.62 | 0.01 | 91 | 1010.6 |
| 20260903075538 | 54 | 0 | 0.0 | 3.0 | 0.01 | 0.62 | 0.01 | 91 | 1010.6 |
| 20260903075038 | 54 | 0 | 0.0 | 3.0 | 0.01 | 0.62 | 0.01 | 91 | 1010.5 |
| 20260903074555 | 54 | 233 | 0.0 | 2.0 | 0.01 | 0.62 | 0.01 | 91 | 1010.6 |
| 20260903074038 | 54 | 0 | 0.0 | 4.0 | 0.01 | 0.62 | 0.01 | 91 | 1010.5 |
| 20260903073539 | 54 | 0 | 0.0 | 4.0 | 0.01 | 0.62 | 0.01 | 91 | 1010.5 |
| 20260903073054 | 54 | 237 | 0.0 | 4.0 | 0.02 | 0.62 | 0.01 | 91 | 1010.4 |
| 20260903072538 | 54 | 246 | 1.0 | 3.0 | 0.02 | 0.62 | 0.01 | 91 | 1010.4 |
| 20260903072039 | 54 | 0 | 0.0 | 3.0 | 0.02 | 0.62 | 0.01 | 91 | 1010.5 |
| 20260903071614 | 54 | 180 | 0.0 | 5.0 | 0.04 | 0.62 | 0.01 | 91 | 1010.6 |
| 20260903071038 | 54 | 174 | 0.0 | 5.0 | 0.07 | 0.62 | 0.01 | 91 | 1010.5 |
| 20260903070538 | 54 | 171 | 1.0 | 4.0 | 0.07 | 0.62 | 0.01 | 91 | 1010.5 |
| 20260903070103 | 54 | 0 | 0.0 | 5.0 | 0.06 | 0.61 | 0.00 | 91 | 1010.6 |
| 20260903065543 | 54 | 0 | 1.0 | 5.0 | 0.06 | 0.61 | 0.61 | 91 | 1010.6 |
| 20260903065038 | 54 | 219 | 2.0 | 5.0 | 0.06 | 0.61 | 0.61 | 91 | 1010.6 |
| 20260903064558 | 54 | 229 | 1.0 | 5.0 | 0.06 | 0.61 | 0.61 | 91 | 1010.8 |
| 20260903064040 | 54 | 246 | 2.0 | 5.0 | 0.06 | 0.61 | 0.61 | 91 | 1010.6 |
| 20260903063539 | 54 | 191 | 1.0 | 5.0 | 0.06 | 0.61 | 0.61 | 91 | 1010.6 |
| 20260903063054 | 54 | 209 | 1.0 | 8.0 | 0.05 | 0.60 | 0.60 | 91 | 1010.7 |
| 20260903062539 | 54 | 228 | 1.0 | 8.0 | 0.05 | 0.60 | 0.60 | 91 | 1010.7 |
| 20260903062044 | 54 | 229 | 1.0 | 5.0 | 0.05 | 0.60 | 0.60 | 91 | 1010.7 |
| 20260903061554 | 54 | 178 | 2.0 | 5.0 | 0.02 | 0.57 | 0.57 | 91 | 1010.7 |
| 20260903061041 | 54 | 227 | 1.0 | 5.0 | 0.00 | 0.55 | 0.55 | 91 | 1010.6 |
| 20260903060540 | 54 | 221 | 1.0 | 5.0 | 0.00 | 0.55 | 0.55 | 91 | 1010.5 |
| 20260903060104 | 54 | 0 | 0.0 | 0.0 | 0.00 | 0.55 | 0.55 | 91 | 1010.5 |
| 20260903055537 | 54 | 0 | 0.0 | 0.0 | 0.00 | 0.55 | 0.55 | 91 | 1010.6 |
| 20260903055042 | 54 | 0 | 0.0 | 0.0 | 0.00 | 0.55 | 0.55 | 91 | 1010.5 |
| 20260903054557 | 54 | 0 | 0.0 | 2.0 | 0.00 | 0.55 | 0.55 | 91 | 1010.6 |
| 20260903054040 | 54 | 0 | 0.0 | 2.0 | 0.00 | 0.55 | 0.55 | 91 | 1010.6 |
| 20260903053539 | 54 | 0 | 0.0 | 3.0 | 0.00 | 0.55 | 0.55 | 91 | 1010.6 |
| 20260903053052 | 54 | 219 | 0.0 | 3.0 | 0.00 | 0.55 | 0.55 | 91 | 1010.6 |
| 20260903052542 | 54 | 0 | 0.0 | 3.0 | 0.00 | 0.55 | 0.55 | 91 | 1010.6 |
| 20260903052040 | 54 | 216 | 0.0 | 2.0 | 0.00 | 0.55 | 0.55 | 91 | 1010.6 |
| 20260903051616 | 54 | 0 | 0.0 | 3.0 | 0.00 | 0.55 | 0.55 | 91 | 1010.4 |
| 20260903051039 | 54 | 216 | 0.0 | 3.0 | 0.00 | 0.55 | 0.55 | 91 | 1010.6 |
| 20260903050540 | 54 | 0 | 1.0 | 3.0 | 0.00 | 0.55 | 0.55 | 91 | 1010.4 |
| 20260903045539 | 54 | 0 | 0.0 | 2.0 | 0.00 | 0.55 | 0.55 | 91 | 1010.4 |
| 20260903045037 | 54 | 0 | 0.0 | 3.0 | 0.00 | 0.55 | 0.55 | 91 | 1010.5 |
| 20260903044554 | 54 | 0 | 0.0 | 3.0 | 0.00 | 0.55 | 0.55 | 91 | 1010.4 |
| 20260903044041 | 54 | 0 | 0.0 | 2.0 | 0.00 | 0.55 | 0.55 | 91 | 1010.3 |
| 20260903043538 | 55 | 0 | 0.0 | 2.0 | 0.00 | 0.55 | 0.55 | 91 | 1010.3 |
| 20260903043207 | 55 | 0 | 0.0 | 2.0 | 0.00 | 0.55 | 0.55 | 91 | 1010.2 |
| 20260903042540 | 55 | 0 | 0.0 | 2.0 | 0.00 | 0.55 | 0.55 | 91 | 1010.2 |
| 20260903042038 | 55 | 0 | 0.0 | 2.0 | 0.00 | 0.55 | 0.55 | 91 | 1010.2 |
| 20260903041605 | 55 | 0 | 0.0 | 2.0 | 0.00 | 0.55 | 0.55 | 91 | 1010.1 |
| 20260903041041 | 55 | 0 | 0.0 | 0.0 | 0.00 | 0.55 | 0.55 | 91 | 1010.0 |
| 20260903040539 | 55 | 0 | 0.0 | 2.0 | 0.01 | 0.55 | 0.55 | 91 | 1010.0 |
| 20260903040058 | 55 | 0 | 0.0 | 2.0 | 0.01 | 0.55 | 0.55 | 91 | 1010.0 |
| 20260903035538 | 55 | 0 | 0.0 | 2.0 | 0.01 | 0.55 | 0.55 | 91 | 1009.9 |
| 20260903035038 | 55 | 227 | 0.0 | 3.0 | 0.01 | 0.55 | 0.55 | 91 | 1009.9 |
| 20260903034551 | 56 | 0 | 0.0 | 3.0 | 0.01 | 0.55 | 0.55 | 91 | 1009.8 |
| 20260903034041 | 56 | 0 | 0.0 | 3.0 | 0.01 | 0.55 | 0.55 | 91 | 1009.7 |
| 20260903033538 | 56 | 217 | 0.0 | 3.0 | 0.01 | 0.55 | 0.55 | 91 | 1009.6 |
| 20260903033100 | 56 | 219 | 0.0 | 2.0 | 0.01 | 0.55 | 0.55 | 91 | 1009.4 |
| 20260903032540 | 56 | 0 | 0.0 | 3.0 | 0.01 | 0.55 | 0.55 | 91 | 1009.4 |
| 20260903032039 | 56 | 0 | 0.0 | 3.0 | 0.01 | 0.55 | 0.55 | 91 | 1009.4 |
| 20260903031559 | 56 | 191 | 0.0 | 7.0 | 0.01 | 0.55 | 0.55 | 91 | 1009.4 |
| 20260903031038 | 56 | 0 | 0.0 | 7.0 | 0.01 | 0.55 | 0.55 | 91 | 1009.3 |
| 20260903030540 | 56 | 178 | 0.0 | 7.0 | 0.00 | 0.54 | 0.54 | 91 | 1009.3 |
| 20260903030103 | 56 | 204 | 2.0 | 7.0 | 0.00 | 0.54 | 0.54 | 91 | 1009.4 |
| 20260903025541 | 57 | 0 | 0.0 | 3.0 | 0.00 | 0.54 | 0.54 | 91 | 1009.4 |
| 20260903025040 | 57 | 226 | 1.0 | 2.0 | 0.00 | 0.54 | 0.54 | 91 | 1009.2 |
| 20260903024606 | 57 | 0 | 0.0 | 2.0 | 0.00 | 0.54 | 0.54 | 91 | 1009.1 |
| 20260903024039 | 57 | 226 | 0.0 | 5.0 | 0.00 | 0.54 | 0.54 | 91 | 1009.0 |
| 20260903023540 | 57 | 226 | 0.0 | 6.0 | 0.00 | 0.54 | 0.54 | 91 | 1009.0 |
| 20260903023105 | 57 | 196 | 0.0 | 6.0 | 0.00 | 0.54 | 0.54 | 91 | 1009.0 |
| 20260903022538 | 57 | 0 | 0.0 | 5.0 | 0.00 | 0.54 | 0.54 | 91 | 1009.0 |
| 20260903022038 | 57 | 274 | 1.0 | 5.0 | 0.00 | 0.54 | 0.54 | 91 | 1009.0 |
| 20260903021555 | 57 | 184 | 1.0 | 3.0 | 0.00 | 0.54 | 0.54 | 91 | 1009.1 |
| 20260903021039 | 57 | 196 | 1.0 | 3.0 | 0.00 | 0.54 | 0.54 | 91 | 1009.0 |
| 20260903020539 | 57 | 0 | 1.0 | 4.0 | 0.00 | 0.54 | 0.54 | 91 | 1008.9 |
| 20260903020056 | 57 | 188 | 0.0 | 4.0 | 0.00 | 0.54 | 0.54 | 91 | 1008.7 |
| 20260903015539 | 57 | 206 | 1.0 | 5.0 | 0.00 | 0.54 | 0.54 | 91 | 1008.6 |
| 20260903015037 | 57 | 148 | 1.0 | 5.0 | 0.00 | 0.54 | 0.54 | 91 | 1008.7 |
| 20260903014557 | 57 | 200 | 1.0 | 4.0 | 0.00 | 0.54 | 0.54 | 91 | 1008.7 |
| 20260903014039 | 57 | 0 | 0.0 | 3.0 | 0.00 | 0.54 | 0.54 | 91 | 1008.5 |
| 20260903013541 | 57 | 229 | 0.0 | 4.0 | 0.00 | 0.54 | 0.54 | 91 | 1008.6 |
| 20260903013109 | 57 | 220 | 1.0 | 5.0 | 0.01 | 0.54 | 0.54 | 91 | 1008.6 |
| 20260903012540 | 57 | 220 | 1.0 | 5.0 | 0.01 | 0.54 | 0.54 | 91 | 1008.5 |
| 20260903012038 | 58 | 226 | 1.0 | 4.0 | 0.01 | 0.54 | 0.54 | 91 | 1008.5 |
| 20260903011555 | 58 | 190 | 0.0 | 4.0 | 0.01 | 0.54 | 0.54 | 91 | 1008.3 |
| 20260903011038 | 58 | 236 | 0.0 | 5.0 | 0.02 | 0.54 | 0.54 | 91 | 1008.3 |
| 20260903010540 | 57 | 221 | 1.0 | 5.0 | 0.02 | 0.54 | 0.54 | 91 | 1008.2 |
| 20260903010056 | 57 | 0 | 0.0 | 5.0 | 0.02 | 0.54 | 0.54 | 91 | 1008.2 |
| 20260903005539 | 57 | 0 | 1.0 | 5.0 | 0.03 | 0.54 | 0.54 | 91 | 1008.0 |
| 20260903005038 | 57 | 200 | 1.0 | 5.0 | 0.05 | 0.54 | 0.54 | 91 | 1008.1 |
| 20260903004606 | 57 | 190 | 2.0 | 5.0 | 0.07 | 0.54 | 0.54 | 91 | 1008.1 |
| 20260903004043 | 57 | 0 | 1.0 | 3.0 | 0.12 | 0.54 | 0.54 | 91 | 1007.9 |
| 20260903003538 | 57 | 224 | 1.0 | 3.0 | 0.18 | 0.54 | 0.54 | 90 | 1007.9 |
| 20260903003100 | 57 | 188 | 1.0 | 3.0 | 0.18 | 0.52 | 0.52 | 90 | 1007.8 |
| 20260903002538 | 57 | 188 | 1.0 | 2.0 | 0.18 | 0.52 | 0.52 | 90 | 1008.0 |
| 20260903002040 | 57 | 0 | 0.0 | 0.0 | 0.18 | 0.52 | 0.52 | 90 | 1007.9 |
| 20260903001558 | 57 | 0 | 0.0 | 0.0 | 0.18 | 0.52 | 0.52 | 90 | 1007.9 |
| 20260903001037 | 57 | 0 | 0.0 | 1.0 | 0.17 | 0.52 | 0.52 | 90 | 1007.8 |
| 20260903000537 | 57 | 0 | 0.0 | 3.0 | 0.17 | 0.52 | 0.52 | 90 | 1007.8 |
| 20260903000054 | 57 | 183 | 0.0 | 3.0 | 0.17 | 0.52 | 0.52 | 90 | 1007.8 |
| 20260902235539 | 57 | 183 | 0.0 | 4.0 | 0.16 | 0.51 | 0.51 | 90 | 1007.7 |
| 20260902235038 | 57 | 0 | 1.0 | 4.0 | 0.14 | 0.49 | 0.49 | 89 | 1007.7 |
| 20260902234610 | 58 | 172 | 0.0 | 4.0 | 0.12 | 0.47 | 0.47 | 89 | 1007.7 |
| 20260902234040 | 58 | 205 | 1.0 | 9.0 | 0.06 | 0.41 | 0.41 | 89 | 1007.8 |
| 20260902233538 | 58 | 230 | 3.0 | 9.0 | 0.01 | 0.36 | 0.36 | 89 | 1007.6 |
| 20260902233101 | 58 | 0 | 2.0 | 5.0 | 0.00 | 0.35 | 0.35 | 89 | 1007.5 |
| 20260902232538 | 58 | 224 | 1.0 | 10.0 | 0.00 | 0.35 | 0.35 | 89 | 1007.4 |
| 20260902232038 | 58 | 230 | 2.0 | 10.0 | 0.00 | 0.35 | 0.35 | 89 | 1007.5 |
| 20260902231553 | 58 | 192 | 2.0 | 11.0 | 0.00 | 0.35 | 0.35 | 89 | 1007.5 |
| 20260902231038 | 58 | 201 | 1.0 | 11.0 | 0.00 | 0.35 | 0.35 | 89 | 1007.4 |
| 20260902230537 | 58 | 211 | 2.0 | 8.0 | 0.00 | 0.35 | 0.35 | 89 | 1007.4 |
| 20260902225537 | 58 | 171 | 3.0 | 8.0 | 0.00 | 0.35 | 0.35 | 88 | 1007.3 |
| 20260902225041 | 58 | 215 | 2.0 | 7.0 | 0.00 | 0.35 | 0.35 | 89 | 1007.3 |
| 20260902224608 | 58 | 230 | 1.0 | 11.0 | 0.00 | 0.35 | 0.35 | 89 | 1007.2 |
| 20260902224038 | 58 | 247 | 2.0 | 11.0 | 0.00 | 0.35 | 0.35 | 89 | 1007.3 |
| 20260902223541 | 58 | 0 | 3.0 | 10.0 | 0.00 | 0.35 | 0.35 | 89 | 1007.3 |
| 20260902223059 | 58 | 234 | 1.0 | 9.0 | 0.00 | 0.35 | 0.35 | 89 | 1007.2 |
| 20260902222538 | 58 | 233 | 3.0 | 9.0 | 0.00 | 0.35 | 0.35 | 89 | 1007.3 |
| 20260902222039 | 58 | 186 | 2.0 | 6.0 | 0.00 | 0.35 | 0.35 | 89 | 1007.2 |
| 20260902221559 | 58 | 217 | 1.0 | 7.0 | 0.00 | 0.35 | 0.35 | 89 | 1007.3 |
| 20260902221038 | 58 | 0 | 1.0 | 7.0 | 0.01 | 0.35 | 0.35 | 89 | 1007.3 |
| 20260902220541 | 58 | 229 | 2.0 | 6.0 | 0.01 | 0.35 | 0.35 | 89 | 1007.2 |
| 20260902220058 | 58 | 231 | 1.0 | 7.0 | 0.01 | 0.35 | 0.35 | 90 | 1007.1 |
| 20260902215539 | 58 | 168 | 2.0 | 11.0 | 0.01 | 0.35 | 0.35 | 89 | 1007.2 |
| 20260902215038 | 58 | 220 | 2.0 | 11.0 | 0.01 | 0.35 | 0.35 | 90 | 1007.1 |
| 20260902214600 | 58 | 217 | 1.0 | 3.0 | 0.01 | 0.35 | 0.35 | 90 | 1007.2 |
| 20260902214039 | 58 | 227 | 0.0 | 3.0 | 0.01 | 0.35 | 0.35 | 90 | 1007.2 |
| 20260902213540 | 58 | 194 | 0.0 | 3.0 | 0.01 | 0.35 | 0.35 | 90 | 1007.2 |
| 20260902213051 | 58 | 0 | 0.0 | 0.0 | 0.02 | 0.35 | 0.35 | 90 | 1007.1 |
| 20260902212539 | 58 | 0 | 0.0 | 0.0 | 0.02 | 0.35 | 0.35 | 90 | 1007.1 |
| 20260902212038 | 58 | 0 | 0.0 | 0.0 | 0.03 | 0.35 | 0.35 | 90 | 1007.2 |
| 20260902211603 | 58 | 0 | 0.0 | 0.0 | 0.04 | 0.35 | 0.35 | 90 | 1007.2 |
| 20260902211038 | 58 | 0 | 0.0 | 0.0 | 0.04 | 0.34 | 0.34 | 90 | 1007.2 |
| 20260902210539 | 58 | 0 | 0.0 | 0.0 | 0.05 | 0.34 | 0.34 | 90 | 1007.1 |
| 20260902210059 | 58 | 0 | 0.0 | 0.0 | 0.07 | 0.34 | 0.34 | 90 | 1007.1 |
| 20260902205538 | 58 | 0 | 0.0 | 1.0 | 0.08 | 0.34 | 0.34 | 90 | 1007.1 |
| 20260902205040 | 58 | 0 | 0.0 | 1.0 | 0.09 | 0.34 | 0.34 | 90 | 1007.1 |
| 20260902204602 | 58 | 0 | 0.0 | 1.0 | 0.12 | 0.34 | 0.34 | 90 | 1007.1 |
| 20260902204038 | 58 | 0 | 0.0 | 3.0 | 0.14 | 0.34 | 0.34 | 90 | 1007.0 |
| 20260902203538 | 58 | 0 | 0.0 | 4.0 | 0.16 | 0.34 | 0.34 | 89 | 1006.9 |
| 20260902203108 | 58 | 0 | 1.0 | 4.0 | 0.17 | 0.33 | 0.33 | 90 | 1006.9 |
| 20260902202538 | 58 | 0 | 0.0 | 3.0 | 0.19 | 0.33 | 0.33 | 90 | 1006.8 |
| 20260902202039 | 58 | 0 | 0.0 | 7.0 | 0.19 | 0.32 | 0.32 | 89 | 1006.8 |
| 20260902201605 | 58 | 84 | 1.0 | 7.0 | 0.18 | 0.31 | 0.31 | 89 | 1006.7 |
| 20260902201042 | 58 | 0 | 1.0 | 7.0 | 0.18 | 0.30 | 0.30 | 89 | 1006.7 |
| 20260902200538 | 58 | 82 | 2.0 | 5.0 | 0.17 | 0.29 | 0.29 | 89 | 1006.9 |
| 20260902200133 | 58 | 74 | 1.0 | 4.0 | 0.16 | 0.27 | 0.27 | 89 | 1006.9 |
| 20260902195539 | 58 | 64 | 1.0 | 3.0 | 0.16 | 0.26 | 0.26 | 89 | 1007.1 |
| 20260902195039 | 58 | 0 | 0.0 | 2.0 | 0.14 | 0.24 | 0.24 | 89 | 1007.2 |
| 20260902194552 | 58 | 0 | 0.0 | 2.0 | 0.13 | 0.22 | 0.22 | 88 | 1007.2 |
| 20260902194040 | 58 | 0 | 0.0 | 3.0 | 0.11 | 0.20 | 0.20 | 88 | 1007.4 |
| 20260902193538 | 58 | 0 | 0.0 | 3.0 | 0.09 | 0.18 | 0.18 | 88 | 1007.3 |
| 20260902193101 | 58 | 0 | 0.0 | 1.0 | 0.07 | 0.16 | 0.16 | 88 | 1007.2 |
| 20260902192541 | 59 | 0 | 0.0 | 2.0 | 0.06 | 0.14 | 0.14 | 88 | 1007.3 |
| 20260902192038 | 59 | 0 | 0.0 | 3.0 | 0.05 | 0.13 | 0.13 | 88 | 1007.3 |
| 20260902191556 | 59 | 0 | 1.0 | 4.0 | 0.06 | 0.13 | 0.13 | 88 | 1007.2 |
| 20260902191038 | 59 | 76 | 0.0 | 4.0 | 0.06 | 0.12 | 0.12 | 88 | 1007.2 |
| 20260902190538 | 59 | 71 | 1.0 | 4.0 | 0.06 | 0.12 | 0.12 | 88 | 1007.1 |
| 20260902190116 | 59 | 0 | 0.0 | 3.0 | 0.06 | 0.11 | 0.11 | 87 | 1007.1 |
| 20260902185542 | 59 | 0 | 0.0 | 2.0 | 0.06 | 0.10 | 0.10 | 87 | 1007.2 |
| 20260902185042 | 59 | 0 | 0.0 | 0.0 | 0.07 | 0.10 | 0.10 | 88 | 1007.3 |
| 20260902184552 | 59 | 0 | 0.0 | 0.0 | 0.06 | 0.09 | 0.09 | 87 | 1007.4 |
| 20260902184038 | 59 | 0 | 0.0 | 0.0 | 0.07 | 0.09 | 0.09 | 87 | 1007.4 |
| 20260902183538 | 59 | 0 | 0.0 | 0.0 | 0.07 | 0.09 | 0.09 | 87 | 1007.5 |
| 20260902183116 | 59 | 0 | 0.0 | 0.0 | 0.08 | 0.09 | 0.09 | 87 | 1007.7 |
| 20260902182539 | 59 | 0 | 0.0 | 0.0 | 0.07 | 0.08 | 0.08 | 86 | 1007.7 |
| 20260902182041 | 59 | 0 | 0.0 | 0.0 | 0.08 | 0.08 | 0.08 | 86 | 1007.9 |
| 20260902181558 | 59 | 0 | 0.0 | 0.0 | 0.07 | 0.07 | 0.07 | 86 | 1007.9 |
| 20260902181038 | 59 | 0 | 0.0 | 0.0 | 0.06 | 0.06 | 0.06 | 85 | 1007.9 |
| 20260902180538 | 60 | 0 | 0.0 | 0.0 | 0.06 | 0.06 | 0.06 | 84 | 1008.0 |
| 20260902180054 | 60 | 0 | 0.0 | 0.0 | 0.05 | 0.05 | 0.05 | 84 | 1008.0 |
| 20260902175539 | 60 | 0 | 0.0 | 0.0 | 0.04 | 0.04 | 0.04 | 84 | 1007.9 |
| 20260902175040 | 61 | 0 | 0.0 | 0.0 | 0.03 | 0.03 | 0.03 | 83 | 1007.9 |
| 20260902174551 | 61 | 0 | 0.0 | 0.0 | 0.03 | 0.03 | 0.03 | 82 | 1007.7 |
| 20260902174038 | 61 | 0 | 0.0 | 0.0 | 0.02 | 0.02 | 0.02 | 81 | 1007.8 |
| 20260902173538 | 61 | 0 | 0.0 | 0.0 | 0.02 | 0.02 | 0.02 | 80 | 1007.6 |
| 20260902173055 | 62 | 0 | 0.0 | 0.0 | 0.01 | 0.01 | 0.01 | 80 | 1007.5 |
| 20260902172537 | 62 | 0 | 0.0 | 0.0 | 0.01 | 0.01 | 0.01 | 80 | 1007.4 |
| 20260902172039 | 63 | 0 | 0.0 | 0.0 | 0.00 | 0.00 | 0.00 | 79 | 1007.4 |
| 20260902171609 | 63 | 0 | 0.0 | 0.0 | 0.00 | 0.00 | 0.00 | 77 | 1007.3 |
| 20260902171043 | 64 | 0 | 0.0 | 0.0 | 0.00 | 0.00 | 0.00 | 76 | 1007.2 |
| 20260902170542 | 64 | 0 | 0.0 | 0.0 | 0.00 | 0.00 | 0.00 | 76 | 1007.1 |
| 20260902170056 | 64 | 0 | 0.0 | 0.0 | 0.00 | 0.00 | 0.00 | 75 | 1007.1 |
| 20260902165538 | 64 | 0 | 0.0 | 0.0 | 0.00 | 0.00 | 0.00 | 74 | 1007.1 |
| 20260902165038 | 64 | 0 | 0.0 | 0.0 | 0.00 | 0.00 | 0.00 | 73 | 1007.1 |
| 20260902164559 | 64 | 0 | 0.0 | 0.0 | 0.00 | 0.00 | 0.00 | 72 | 1007.1 |
| 20260902164040 | 64 | 0 | 0.0 | 0.0 | 0.00 | 0.00 | 0.00 | 73 | 1007.0 |
| 20260902163538 | 64 | 0 | 0.0 | 0.0 | 0.00 | 0.00 | 0.00 | 73 | 1007.0 |